Weather History for Jasper, TX

Change the Weather History Date:

Friday, February 22, 2013

  Actual Average (KLFK) Record (KLFK)
Temperature  
Mean Temperature 56 °F 54 °F  
Max Temperature 61 °F 65 °F 92 °F (1996)
Min Temperature 50 °F 43 °F 16 °F (1978)
Degree Days  
Heating Degree Days 10 11  
Month to date heating degree days 291  
Since 1 July heating degree days 1571  
Cooling Degree Days 0 0  
Month to date cooling degree days 0  
Year to date cooling degree days 8  
Growing Degree Days 6 (Base 50)    
Moisture  
Dew Point 50 °F    
Average Humidity 83    
Maximum Humidity 98    
Minimum Humidity 67    
Precipitation  
Precipitation 0.14 in 0.14 in 1.82 in (1992)
Month to date precipitation 3.08  
Year to date precipitation 7.26  
Snow  
Snow 0.00 in - - ()
Month to date snowfall  
Since 1 July snowfall  
Snow Depth -    
Sea Level Pressure  
Sea Level Pressure 29.98 in    
Wind  
Wind Speed 5 mph (NNE)    
Max Wind Speed 13 mph    
Max Gust Speed -    
Visibility 10 miles    
Events Rain    
T = Trace of Precipitation, MM = Missing Value Source: NWS Daily Summary

Daily Weather History Graph

Daily Weather History Graph

Search for Another Location

Airport:

Trip Planner

Search our weather history database for the weather conditions in past years. The results will help you decide how hot, cold, wet, or windy it might be!

Date:

Astronomy

Feb. 22, 2013 Rise Set
Actual Time 6:49 AM CST 6:09 PM CST
Civil Twilight 6:25 AM CST 6:34 PM CST
Nautical Twilight 5:57 AM CST 7:02 PM CST
Astronomical Twilight 5:29 AM CST 7:30 PM CST
Moon 3:29 PM CST (2/22) 4:27 AM CST (2/22)
Length of Visible Light 12h 08m
Length of Day
11h 19m
Waxing Gibbous, 90% of the Moon is Illuminated
Feb 22
Waxing Gibbous
Feb 25
Full
Mar 4
Last Quarter
Mar 11
New
Mar 19
First Quarter

Hourly Weather History & Observations

Time (CST) Temp. Dew Point Humidity Pressure Visibility Wind Dir Wind Speed Gust Speed Precip Events Conditions
12:15 AM 52.3 °F 51.6 °F 97% 29.91 in 1.0 mi Calm Calm - N/A   Mist
12:35 AM 51.6 °F 51.1 °F 98% 29.91 in 1.0 mi NW 5.8 mph - N/A   Mist
12:55 AM 50.4 °F 49.8 °F 98% 29.90 in 10.0 mi NW 9.2 mph - N/A   Clear
1:15 AM 50.7 °F 49.6 °F 96% 29.89 in 10.0 mi East 3.5 mph - N/A   Clear
1:35 AM 52.0 °F 48.2 °F 87% 29.89 in 10.0 mi North 4.6 mph - N/A   Clear
1:55 AM 52.9 °F 47.1 °F 81% 29.90 in 10.0 mi Calm Calm - N/A   Clear
2:15 AM 51.6 °F 48.2 °F 88% 29.89 in 10.0 mi NNE 4.6 mph - N/A   Clear
2:35 AM 52.3 °F 48.6 °F 87% 29.89 in 10.0 mi NE 4.6 mph - N/A   Clear
2:55 AM 52.2 °F 48.6 °F 88% 29.91 in 10.0 mi East 3.5 mph - N/A   Clear
3:35 AM 50.2 °F 48.4 °F 94% 29.92 in 10.0 mi NNE 4.6 mph - N/A   Clear
3:55 AM 52.3 °F 48.9 °F 88% 29.92 in 10.0 mi NE 5.8 mph - N/A   Clear
4:15 AM 53.2 °F 49.8 °F 88% 29.93 in 10.0 mi NE 4.6 mph - N/A   Clear
4:35 AM 52.9 °F 49.6 °F 89% 29.93 in 10.0 mi NE 4.6 mph - N/A   Clear
4:55 AM 52.7 °F 49.8 °F 90% 29.94 in 10.0 mi NE 4.6 mph - N/A   Clear
5:15 AM 52.5 °F 49.6 °F 90% 29.95 in 10.0 mi NE 5.8 mph - N/A   Clear
5:35 AM 52.7 °F 49.8 °F 90% 29.96 in 10.0 mi NE 4.6 mph - N/A   Clear
5:55 AM 52.9 °F 50.0 °F 90% 29.98 in 10.0 mi East 3.5 mph - N/A   Clear
6:15 AM 52.9 °F 49.8 °F 89% 29.97 in 10.0 mi ENE 4.6 mph - N/A   Clear
6:35 AM 52.7 °F 49.6 °F 89% 29.98 in 10.0 mi NE 4.6 mph - N/A   Clear
6:55 AM 52.3 °F 49.5 °F 90% 29.99 in 10.0 mi ENE 4.6 mph - N/A   Clear
7:35 AM 52.5 °F 49.5 °F 89% 29.99 in 10.0 mi ENE 4.6 mph - N/A   Clear
7:55 AM 53.4 °F 49.8 °F 88% 29.99 in 10.0 mi ENE 6.9 mph - N/A   Clear
8:15 AM 54.7 °F 50.2 °F 85% 30.01 in 10.0 mi North 4.6 mph - N/A   Clear
8:35 AM 55.9 °F 50.7 °F 83% 30.01 in 10.0 mi NNE 5.8 mph - N/A   Clear
8:55 AM 57.0 °F 50.5 °F 79% 30.02 in 10.0 mi NNE 6.9 mph - N/A   Clear
9:15 AM 57.6 °F 50.7 °F 78% 30.03 in 10.0 mi North 5.8 mph - N/A   Scattered Clouds
9:35 AM 57.6 °F 51.6 °F 81% 30.03 in 10.0 mi North 8.1 mph - N/A   Mostly Cloudy
9:55 AM 58.8 °F 52.0 °F 78% 30.02 in 10.0 mi North 12.7 mph - N/A   Clear
10:15 AM 58.8 °F 51.4 °F 76% 30.02 in 10.0 mi North 8.1 mph - N/A   Clear
10:35 AM 59.9 °F 51.6 °F 74% 30.02 in 10.0 mi North 8.1 mph - N/A   Clear
10:55 AM 60.3 °F 52.3 °F 75% 30.03 in 10.0 mi NNW 10.4 mph - N/A   Clear
11:15 AM 60.1 °F 52.0 °F 75% 30.03 in 10.0 mi North 6.9 mph - N/A   Scattered Clouds
11:35 AM 60.8 °F 52.2 °F 73% 30.01 in 10.0 mi North 6.9 mph - N/A   Scattered Clouds
11:55 AM 61.2 °F 50.4 °F 68% 30.01 in 10.0 mi North 6.9 mph - N/A   Mostly Cloudy
12:15 PM 60.8 °F 49.8 °F 67% 30.01 in 10.0 mi NNE 8.1 mph - N/A   Overcast
12:35 PM 60.4 °F 49.6 °F 68% 30.00 in 10.0 mi North 8.1 mph - N/A   Overcast
12:55 PM 60.3 °F 50.2 °F 69% 30.01 in 10.0 mi WNW 8.1 mph - N/A   Overcast
1:15 PM 59.4 °F 51.6 °F 76% 29.99 in 10.0 mi NNW 8.1 mph - N/A   Overcast
1:35 PM 59.2 °F 51.3 °F 75% 29.98 in 10.0 mi NNW 5.8 mph - N/A   Overcast
1:55 PM 57.9 °F 50.9 °F 77% 30.00 in 2.0 mi NW 4.6 mph - 0.11 in Rain Heavy Rain
2:15 PM 56.5 °F 51.6 °F 84% 29.98 in 10.0 mi North 4.6 mph - 0.03 in   Mostly Cloudy
2:35 PM 56.1 °F 51.3 °F 84% 29.98 in 10.0 mi North 9.2 mph - 0.03 in   Overcast
2:55 PM 55.9 °F 50.9 °F 83% 29.99 in 10.0 mi North 6.9 mph - 0.03 in   Overcast
3:15 PM 56.1 °F 50.9 °F 83% 29.98 in 10.0 mi NNE 8.1 mph - N/A   Overcast
3:35 PM 56.3 °F 50.4 °F 80% 29.98 in 10.0 mi NNE 8.1 mph - N/A   Overcast
3:55 PM 56.3 °F 50.0 °F 79% 29.97 in 10.0 mi NNE 5.8 mph - N/A   Overcast
4:15 PM 56.5 °F 50.2 °F 79% 29.98 in 10.0 mi North 4.6 mph - N/A   Overcast
4:35 PM 56.7 °F 50.2 °F 79% 29.98 in 10.0 mi North 8.1 mph - N/A   Overcast
4:55 PM 55.8 °F 50.2 °F 82% 29.97 in 10.0 mi North 6.9 mph - N/A   Overcast
5:15 PM 55.4 °F 49.8 °F 81% 29.97 in 10.0 mi North 6.9 mph - N/A   Overcast
5:35 PM 54.9 °F 49.1 °F 81% 29.98 in 10.0 mi North 6.9 mph - N/A   Overcast
5:55 PM 54.7 °F 49.1 °F 81% 29.97 in 10.0 mi North 6.9 mph - N/A   Overcast
6:15 PM 54.5 °F 49.1 °F 82% 29.98 in 10.0 mi NNE 4.6 mph - N/A   Overcast
6:35 PM 54.5 °F 49.1 °F 82% 29.98 in 10.0 mi NNE 6.9 mph - N/A   Overcast
6:55 PM 54.5 °F 49.1 °F 82% 29.99 in 10.0 mi North 6.9 mph - N/A   Overcast
7:15 PM 54.0 °F 48.7 °F 82% 29.98 in 10.0 mi NNE 4.6 mph - N/A   Overcast
7:35 PM 54.0 °F 48.6 °F 82% 29.98 in 10.0 mi North 6.9 mph - N/A   Overcast
7:55 PM 54.0 °F 48.7 °F 82% 29.99 in 10.0 mi NNE 3.5 mph - N/A   Overcast
8:15 PM 53.8 °F 48.7 °F 83% 30.00 in 10.0 mi North 6.9 mph - N/A   Overcast
8:35 PM 54.0 °F 48.9 °F 83% 30.00 in 10.0 mi North 6.9 mph - N/A   Overcast
8:55 PM 53.8 °F 48.6 °F 82% 30.00 in 10.0 mi North 6.9 mph - N/A   Overcast
9:15 PM 53.8 °F 48.7 °F 83% 30.01 in 10.0 mi North 4.6 mph - N/A   Overcast
9:35 PM 53.8 °F 48.7 °F 83% 30.01 in 10.0 mi NNE 4.6 mph - N/A   Overcast
9:55 PM 53.8 °F 48.4 °F 82% 30.01 in 10.0 mi NNE 6.9 mph - N/A   Overcast
10:15 PM 53.6 °F 48.4 °F 82% 30.01 in 10.0 mi North 4.6 mph - N/A   Overcast
10:35 PM 53.6 °F 48.4 °F 82% 30.03 in 10.0 mi North 6.9 mph - N/A   Overcast
10:55 PM 53.2 °F 48.4 °F 84% 30.03 in 10.0 mi North 6.9 mph - N/A   Overcast
11:15 PM 53.1 °F 48.2 °F 84% 30.04 in 10.0 mi North 9.2 mph - N/A   Overcast
11:35 PM 52.9 °F 48.0 °F 84% 30.03 in 10.0 mi North 9.2 mph - N/A   Overcast
11:55 PM 52.3 °F 47.5 °F 84% 30.04 in 10.0 mi North 8.1 mph - N/A   Scattered Clouds